OCN156 FSIA-FIMP

Flight info

Callsign OCN156
Flight time 2h 25m
Altitude 39000
Route IMPOX1B IMPOX DCT RERUS/N0460F380 UM313 ALRAN UT400 DUNRI DUNRI1F
Aircraft A333/H-SDE2E3FGHIJ3J4J5LM1OP2RWXYZ/LB2D1

Departure

Time 2026-04-29 18:28
Airport Seychelles International Airport (FSIA)

Arrival

Time 2026-04-29 20:53
Airport Sir Seewoosagur Ramgoolam International Airport (FIMP)
Time Latitude Longitude Altitude Speed Heading
2026-04-29 17:56 -4.67072 55.51246 25 ft 0 kts 215°
2026-04-29 18:19 -4.67065 55.51250 25 ft 2 kts 215°
2026-04-29 18:19 -4.67053 55.51258 25 ft 2 kts 215°
2026-04-29 18:19 -4.67041 55.51267 25 ft 2 kts 215°
2026-04-29 18:19 -4.67029 55.51276 25 ft 2 kts 227°
2026-04-29 18:20 -4.67020 55.51288 25 ft 2 kts 243°
2026-04-29 18:20 -4.67014 55.51302 25 ft 2 kts 257°
2026-04-29 18:20 -4.67012 55.51315 25 ft 0 kts 269°
2026-04-29 18:20 -4.67012 55.51320 25 ft 0 kts 271°
2026-04-29 18:23 -4.67012 55.51310 25 ft 2 kts 277°
2026-04-29 18:23 -4.67005 55.51285 25 ft 4 kts 289°
2026-04-29 18:23 -4.66986 55.51247 25 ft 7 kts 301°
2026-04-29 18:23 -4.66951 55.51201 24 ft 9 kts 326°
2026-04-29 18:24 -4.66900 55.51199 24 ft 6 kts 357°
2026-04-29 18:24 -4.66856 55.51165 23 ft 9 kts 308°
2026-04-29 18:24 -4.66810 55.51102 23 ft 12 kts 304°
2026-04-29 18:24 -4.66762 55.51045 22 ft 8 kts 335°
2026-04-29 18:25 -4.66713 55.51058 22 ft 8 kts 32°
2026-04-29 18:25 -4.66678 55.51107 22 ft 9 kts 101°
2026-04-29 18:25 -4.66704 55.51146 22 ft 0 kts 126°
2026-04-29 18:27 -4.66705 55.51147 22 ft 1 kts 126°
2026-04-29 18:27 -4.66806 55.51289 24 ft 61 kts 124°
2026-04-29 18:27 -4.67209 55.51867 25 ft 136 kts 125°
2026-04-29 18:28 -4.67867 55.52784 222 ft 178 kts 126°
2026-04-29 18:28 -4.68661 55.53767 896 ft 182 kts 131°
2026-04-29 18:28 -4.69552 55.54766 1386 ft 204 kts 127°
2026-04-29 18:28 -4.70338 55.55994 2241 ft 219 kts 116°
2026-04-29 18:29 -4.71125 55.57376 3217 ft 243 kts 123°
2026-04-29 18:29 -4.71752 55.58320 3978 ft 261 kts 125°
2026-04-29 18:29 -4.73200 55.60400 5787 ft 290 kts 129°
2026-04-29 18:29 -4.74819 55.61670 7268 ft 310 kts 155°
2026-04-29 18:30 -4.76855 55.62150 8768 ft 298 kts 180°
2026-04-29 18:30 -4.78774 55.61752 10061 ft 277 kts 206°
2026-04-29 18:30 -4.80208 55.60605 11151 ft 262 kts 234°
2026-04-29 18:30 -4.81140 55.59107 12132 ft 250 kts 234°
2026-04-29 18:31 -4.82196 55.57771 12945 ft 239 kts 229°
2026-04-29 18:31 -4.83333 55.56516 13409 ft 249 kts 226°
2026-04-29 18:31 -4.84561 55.55227 13830 ft 261 kts 226°
2026-04-29 18:31 -4.85866 55.53877 14280 ft 271 kts 226°
2026-04-29 18:32 -4.87214 55.52490 14726 ft 282 kts 226°
2026-04-29 18:32 -4.90078 55.49545 15616 ft 303 kts 226°
2026-04-29 18:32 -4.91579 55.48002 16055 ft 313 kts 226°
2026-04-29 18:33 -4.93128 55.46410 16491 ft 323 kts 226°
2026-04-29 18:33 -4.94717 55.44777 16921 ft 331 kts 226°
2026-04-29 18:33 -4.96350 55.43097 17347 ft 340 kts 226°
2026-04-29 18:33 -4.98042 55.41357 17783 ft 347 kts 226°
2026-04-29 18:34 -4.99750 55.39601 18209 ft 355 kts 226°
2026-04-29 18:34 -5.00914 55.38403 18496 ft 359 kts 226°
2026-04-29 18:34 -5.03282 55.35968 19072 ft 367 kts 226°
2026-04-29 18:34 -5.05084 55.34114 19500 ft 373 kts 226°
2026-04-29 18:35 -5.06920 55.32225 19928 ft 378 kts 226°
2026-04-29 18:35 -5.08835 55.30375 20343 ft 384 kts 218°
2026-04-29 18:35 -5.11224 55.29140 20758 ft 389 kts 198°
2026-04-29 18:35 -5.13919 55.28733 21188 ft 392 kts 179°
2026-04-29 18:36 -5.16617 55.29220 21614 ft 394 kts 160°
2026-04-29 18:36 -5.19220 55.30176 22022 ft 397 kts 159°
2026-04-29 18:36 -5.21863 55.31094 22382 ft 403 kts 160°
2026-04-29 18:36 -5.24552 55.31987 22751 ft 407 kts 161°
2026-04-29 18:37 -5.27290 55.32881 23120 ft 411 kts 161°
2026-04-29 18:37 -5.30035 55.33770 23482 ft 415 kts 161°
2026-04-29 18:37 -5.32802 55.34665 23852 ft 418 kts 161°
2026-04-29 18:37 -5.35593 55.35567 24223 ft 421 kts 161°
2026-04-29 18:38 -5.38431 55.36483 24594 ft 424 kts 161°
2026-04-29 18:38 -5.41262 55.37397 24964 ft 427 kts 161°
2026-04-29 18:38 -5.44106 55.38315 25332 ft 430 kts 161°
2026-04-29 18:38 -5.47006 55.39252 25704 ft 432 kts 161°
2026-04-29 18:39 -5.49888 55.40183 26074 ft 434 kts 161°
2026-04-29 18:39 -5.52782 55.41118 26442 ft 437 kts 160°
2026-04-29 18:39 -5.55725 55.42069 26815 ft 439 kts 161°
2026-04-29 18:39 -5.58642 55.43011 27182 ft 440 kts 160°
2026-04-29 18:40 -5.61603 55.43968 27555 ft 442 kts 160°
2026-04-29 18:40 -5.64541 55.44917 27921 ft 444 kts 160°
2026-04-29 18:40 -5.67501 55.45874 28289 ft 446 kts 160°
2026-04-29 18:40 -5.70476 55.46836 28659 ft 447 kts 160°
2026-04-29 18:41 -5.79498 55.49752 29811 ft 452 kts 160°
2026-04-29 18:41 -5.82501 55.50723 30192 ft 453 kts 160°
2026-04-29 18:42 -5.85515 55.51698 30573 ft 455 kts 159°
2026-04-29 18:42 -5.88577 55.52688 30959 ft 456 kts 159°
2026-04-29 18:42 -5.91614 55.53670 31341 ft 457 kts 159°
2026-04-29 18:42 -5.94649 55.54652 31723 ft 458 kts 159°
2026-04-29 18:43 -5.97699 55.55638 32104 ft 458 kts 158°
2026-04-29 18:43 -6.00785 55.56637 32491 ft 459 kts 158°
2026-04-29 18:43 -6.03848 55.57629 32894 ft 459 kts 158°
2026-04-29 18:43 -6.06906 55.58620 33313 ft 460 kts 158°
2026-04-29 18:44 -6.09976 55.59613 33734 ft 460 kts 158°
2026-04-29 18:44 -6.13039 55.60605 34151 ft 460 kts 158°
2026-04-29 18:44 -6.16113 55.61600 34569 ft 460 kts 158°
2026-04-29 18:44 -6.19188 55.62596 34990 ft 459 kts 158°
2026-04-29 18:45 -6.22239 55.63584 35408 ft 459 kts 158°
2026-04-29 18:45 -6.25304 55.64577 35831 ft 458 kts 158°
2026-04-29 18:45 -6.28365 55.65568 36261 ft 457 kts 158°
2026-04-29 18:45 -6.31421 55.66559 36701 ft 456 kts 158°
2026-04-29 18:46 -6.34429 55.67534 37135 ft 455 kts 158°
2026-04-29 18:46 -6.37469 55.68518 37575 ft 453 kts 158°
2026-04-29 18:46 -6.40495 55.69499 38016 ft 451 kts 158°
2026-04-29 18:46 -6.43509 55.70476 38397 ft 450 kts 158°
2026-04-29 18:47 -6.46479 55.71439 38712 ft 450 kts 158°
2026-04-29 18:47 -6.49488 55.72415 38950 ft 452 kts 159°
2026-04-29 18:47 -6.55597 55.74397 38925 ft 463 kts 159°
2026-04-29 18:48 -6.61794 55.76407 38921 ft 471 kts 159°
2026-04-29 18:48 -6.68125 55.78461 38914 ft 478 kts 159°
2026-04-29 18:49 -6.74478 55.80521 38911 ft 475 kts 159°
2026-04-29 18:49 -6.80760 55.82561 38909 ft 469 kts 159°
2026-04-29 18:50 -6.87007 55.84590 38908 ft 469 kts 159°
2026-04-29 18:50 -6.93277 55.86627 38907 ft 470 kts 159°
2026-04-29 18:51 -6.99530 55.88659 38907 ft 472 kts 159°
2026-04-29 18:51 -7.05801 55.90696 38907 ft 472 kts 159°
2026-04-29 18:52 -7.12103 55.92745 38904 ft 471 kts 159°
2026-04-29 18:52 -7.18340 55.94774 38904 ft 471 kts 159°
2026-04-29 18:53 -7.24632 55.96820 38904 ft 471 kts 159°
2026-04-29 18:53 -7.30897 55.98858 38904 ft 470 kts 159°
2026-04-29 18:54 -7.37142 56.00891 38904 ft 471 kts 159°
2026-04-29 18:54 -7.43398 56.02928 38904 ft 472 kts 159°
2026-04-29 18:55 -7.49679 56.04974 38905 ft 472 kts 159°
2026-04-29 18:55 -7.55973 56.07024 38905 ft 472 kts 159°
2026-04-29 18:56 -7.62273 56.09074 38904 ft 471 kts 159°
2026-04-29 18:56 -7.65481 56.09742 38901 ft 476 kts 170°
2026-04-29 18:56 -7.68827 56.10086 38918 ft 477 kts 171°
2026-04-29 18:57 -7.75440 56.10828 38918 ft 477 kts 170°
2026-04-29 18:57 -7.82096 56.11605 38926 ft 477 kts 170°
2026-04-29 18:58 -7.88733 56.12381 38935 ft 477 kts 170°
2026-04-29 18:58 -7.95365 56.13157 38936 ft 477 kts 170°
2026-04-29 18:59 -8.01985 56.13932 38935 ft 477 kts 170°
2026-04-29 18:59 -8.08652 56.14713 38926 ft 477 kts 170°
2026-04-29 19:00 -8.15273 56.15490 38917 ft 478 kts 170°
2026-04-29 19:00 -8.21926 56.16270 38913 ft 477 kts 171°
2026-04-29 19:01 -8.28509 56.17041 38910 ft 475 kts 171°
2026-04-29 19:01 -8.35143 56.17820 38910 ft 476 kts 171°
2026-04-29 19:02 -8.40643 56.18464 38922 ft 476 kts 171°
2026-04-29 19:02 -8.48384 56.19373 38918 ft 476 kts 171°
2026-04-29 19:03 -8.54984 56.20148 38925 ft 477 kts 171°
2026-04-29 19:03 -8.61607 56.20926 38933 ft 477 kts 171°
2026-04-29 19:04 -8.68259 56.21708 38939 ft 476 kts 171°
2026-04-29 19:04 -8.74865 56.22485 38939 ft 475 kts 171°
2026-04-29 19:05 -8.81500 56.23265 38935 ft 474 kts 171°
2026-04-29 19:05 -8.88087 56.24039 38928 ft 475 kts 171°
2026-04-29 19:06 -8.94699 56.24817 38919 ft 477 kts 171°
2026-04-29 19:07 -9.04634 56.25987 38939 ft 476 kts 171°
2026-04-29 19:07 -9.11236 56.26765 38938 ft 476 kts 171°
2026-04-29 19:08 -9.17852 56.27544 38932 ft 474 kts 171°
2026-04-29 19:08 -9.24476 56.28325 38923 ft 474 kts 171°
2026-04-29 19:09 -9.31038 56.29098 38914 ft 474 kts 171°
2026-04-29 19:09 -9.37659 56.29879 38907 ft 475 kts 171°
2026-04-29 19:10 -9.44241 56.30657 38906 ft 475 kts 172°
2026-04-29 19:10 -9.50863 56.31438 38908 ft 474 kts 172°
2026-04-29 19:11 -9.57453 56.32217 38916 ft 474 kts 172°
2026-04-29 19:11 -9.64009 56.32991 38928 ft 472 kts 172°
2026-04-29 19:12 -9.70602 56.33770 38922 ft 472 kts 172°
2026-04-29 19:12 -9.77159 56.34545 38913 ft 473 kts 172°
2026-04-29 19:13 -9.83764 56.35326 38905 ft 473 kts 172°
2026-04-29 19:13 -9.90314 56.36102 38897 ft 472 kts 172°
2026-04-29 19:14 -9.96930 56.36885 38893 ft 473 kts 172°
2026-04-29 19:14 -10.03534 56.37569 38894 ft 474 kts 174°
2026-04-29 19:15 -10.10134 56.38146 38889 ft 473 kts 174°
2026-04-29 19:15 -10.16749 56.38731 38897 ft 473 kts 174°
2026-04-29 19:16 -10.23333 56.39314 38913 ft 473 kts 174°
2026-04-29 19:16 -10.29922 56.39898 38923 ft 473 kts 174°
2026-04-29 19:17 -10.36503 56.40482 38931 ft 473 kts 174°
2026-04-29 19:17 -10.43145 56.41071 38937 ft 473 kts 174°
2026-04-29 19:18 -10.49743 56.41656 38938 ft 473 kts 174°
2026-04-29 19:18 -10.56349 56.42243 38932 ft 472 kts 174°
2026-04-29 19:19 -10.62946 56.42829 38924 ft 472 kts 174°
2026-04-29 19:19 -10.69534 56.43413 38916 ft 474 kts 174°
2026-04-29 19:20 -10.76162 56.44003 38912 ft 473 kts 174°
2026-04-29 19:20 -10.82725 56.44587 38914 ft 473 kts 174°
2026-04-29 19:21 -10.89354 56.45176 38918 ft 473 kts 174°
2026-04-29 19:21 -10.95958 56.45764 38925 ft 474 kts 174°
2026-04-29 19:22 -11.02563 56.46352 38934 ft 473 kts 174°
2026-04-29 19:22 -11.09194 56.46943 38938 ft 473 kts 174°
2026-04-29 19:23 -11.15798 56.47532 38936 ft 474 kts 174°
2026-04-29 19:23 -11.22405 56.48120 38929 ft 474 kts 174°
2026-04-29 19:24 -11.29047 56.48713 38921 ft 475 kts 174°
2026-04-29 19:24 -11.35697 56.49307 38915 ft 475 kts 174°
2026-04-29 19:25 -11.42337 56.49898 38913 ft 474 kts 174°
2026-04-29 19:25 -11.48915 56.50487 38917 ft 474 kts 174°
2026-04-29 19:26 -11.55570 56.51082 38920 ft 476 kts 174°
2026-04-29 19:26 -11.62224 56.51677 38930 ft 476 kts 174°
2026-04-29 19:27 -11.68858 56.52270 38941 ft 476 kts 174°
2026-04-29 19:27 -11.75478 56.52862 38947 ft 476 kts 174°
2026-04-29 19:28 -11.82140 56.53458 38947 ft 476 kts 174°
2026-04-29 19:28 -11.88800 56.54055 38938 ft 477 kts 174°
2026-04-29 19:29 -11.95465 56.54653 38935 ft 477 kts 174°
2026-04-29 19:29 -12.02113 56.55249 38937 ft 477 kts 174°
2026-04-29 19:30 -12.08788 56.55848 38942 ft 477 kts 174°
2026-04-29 19:30 -12.15458 56.56446 38950 ft 476 kts 174°
2026-04-29 19:31 -12.22114 56.57044 38953 ft 475 kts 173°
2026-04-29 19:31 -12.28720 56.57637 38946 ft 474 kts 173°
2026-04-29 19:32 -12.35373 56.58236 38937 ft 474 kts 173°
2026-04-29 19:32 -12.41950 56.58827 38933 ft 473 kts 173°
2026-04-29 19:33 -12.48570 56.59423 38933 ft 471 kts 173°
2026-04-29 19:33 -12.55124 56.60014 38937 ft 471 kts 173°
2026-04-29 19:34 -12.61714 56.60607 38945 ft 469 kts 173°
2026-04-29 19:34 -12.68251 56.61196 38952 ft 469 kts 173°
2026-04-29 19:35 -12.74805 56.61787 38955 ft 467 kts 173°
2026-04-29 19:35 -12.81323 56.62376 38950 ft 465 kts 173°
2026-04-29 19:36 -12.87824 56.62962 38938 ft 465 kts 173°
2026-04-29 19:36 -12.94287 56.63546 38934 ft 465 kts 173°
2026-04-29 19:37 -13.00790 56.64133 38933 ft 465 kts 173°
2026-04-29 19:37 -13.07300 56.64722 38933 ft 466 kts 173°
2026-04-29 19:38 -13.13767 56.65306 38943 ft 464 kts 173°
2026-04-29 19:38 -13.20244 56.65893 38958 ft 464 kts 173°
2026-04-29 19:39 -13.26755 56.66483 38958 ft 463 kts 173°
2026-04-29 19:39 -13.33198 56.67066 38954 ft 463 kts 173°
2026-04-29 19:40 -13.39686 56.67654 38955 ft 465 kts 173°
2026-04-29 19:40 -13.46190 56.68245 38955 ft 464 kts 173°
2026-04-29 19:41 -13.52672 56.68833 38959 ft 463 kts 173°
2026-04-29 19:41 -13.59160 56.69422 38961 ft 463 kts 173°
2026-04-29 19:42 -13.65600 56.70007 38961 ft 463 kts 173°
2026-04-29 19:42 -13.72055 56.70594 38970 ft 462 kts 173°
2026-04-29 19:43 -13.78541 56.71183 38971 ft 462 kts 173°
2026-04-29 19:43 -13.85026 56.71773 38968 ft 462 kts 173°
2026-04-29 19:44 -13.91470 56.72360 38960 ft 461 kts 173°
2026-04-29 19:44 -13.97923 56.72948 38953 ft 461 kts 173°
2026-04-29 19:45 -14.04333 56.73533 38956 ft 460 kts 173°
2026-04-29 19:45 -14.10790 56.74122 38961 ft 461 kts 172°
2026-04-29 19:46 -14.17230 56.74709 38967 ft 461 kts 172°
2026-04-29 19:46 -14.23672 56.75297 38977 ft 461 kts 173°
2026-04-29 19:47 -14.30129 56.75887 38981 ft 461 kts 172°
2026-04-29 19:47 -14.36576 56.76476 38976 ft 460 kts 172°
2026-04-29 19:48 -14.43018 56.77066 38967 ft 460 kts 172°
2026-04-29 19:48 -14.49443 56.77654 38960 ft 460 kts 172°
2026-04-29 19:49 -14.55868 56.78242 38957 ft 459 kts 172°
2026-04-29 19:49 -14.62249 56.78827 38958 ft 459 kts 172°
2026-04-29 19:50 -14.68712 56.79420 38963 ft 460 kts 172°
2026-04-29 19:50 -14.75111 56.80006 38972 ft 460 kts 172°
2026-04-29 19:51 -14.81550 56.80598 38973 ft 461 kts 172°
2026-04-29 19:51 -14.88000 56.81190 38964 ft 460 kts 172°
2026-04-29 19:52 -14.94436 56.81781 38963 ft 459 kts 172°
2026-04-29 19:52 -15.00817 56.82368 38961 ft 458 kts 172°
2026-04-29 19:53 -15.07247 56.82959 38960 ft 459 kts 172°
2026-04-29 19:53 -15.13680 56.83551 38966 ft 460 kts 172°
2026-04-29 19:54 -15.23332 56.84438 38970 ft 460 kts 173°
2026-04-29 19:54 -15.29779 56.85031 38975 ft 460 kts 172°
2026-04-29 19:55 -15.36186 56.85621 38969 ft 459 kts 172°
2026-04-29 19:55 -15.42624 56.86215 38968 ft 458 kts 172°
2026-04-29 19:56 -15.49040 56.86807 38963 ft 458 kts 173°
2026-04-29 19:56 -15.55449 56.87398 38959 ft 459 kts 173°
2026-04-29 19:57 -15.60788 56.87891 38963 ft 460 kts 173°
2026-04-29 19:57 -15.68293 56.88584 38975 ft 460 kts 173°
2026-04-29 19:58 -15.74776 56.89183 38978 ft 461 kts 173°
2026-04-29 19:58 -15.81207 56.89778 38976 ft 459 kts 173°
2026-04-29 19:59 -15.87630 56.90373 38986 ft 459 kts 173°
2026-04-29 19:59 -15.94072 56.90969 38983 ft 460 kts 173°
2026-04-29 20:00 -16.00482 56.91564 38986 ft 461 kts 173°
2026-04-29 20:00 -16.06930 56.92162 38985 ft 461 kts 173°
2026-04-29 20:01 -16.13397 56.92762 38987 ft 461 kts 173°
2026-04-29 20:01 -16.19881 56.93364 38985 ft 462 kts 173°
2026-04-29 20:02 -16.26330 56.93964 38982 ft 463 kts 173°
2026-04-29 20:02 -16.31728 56.94466 38986 ft 465 kts 173°
2026-04-29 20:03 -16.39322 56.95172 38986 ft 465 kts 173°
2026-04-29 20:03 -16.45875 56.95782 38990 ft 465 kts 173°
2026-04-29 20:04 -16.52407 56.96391 38980 ft 466 kts 174°
2026-04-29 20:04 -16.58895 56.96996 38977 ft 466 kts 174°
2026-04-29 20:05 -16.65442 56.97607 38976 ft 468 kts 174°
2026-04-29 20:05 -16.72019 56.98221 38977 ft 470 kts 174°
2026-04-29 20:06 -16.78596 56.98836 38979 ft 470 kts 174°
2026-04-29 20:06 -16.85198 56.99453 38980 ft 471 kts 174°
2026-04-29 20:07 -16.91765 57.00067 38979 ft 470 kts 174°
2026-04-29 20:07 -16.98341 57.00683 38981 ft 469 kts 174°
2026-04-29 20:08 -17.03775 57.01192 38988 ft 469 kts 174°
2026-04-29 20:08 -17.11479 57.01914 38976 ft 471 kts 174°
2026-04-29 20:09 -17.18039 57.02530 38985 ft 471 kts 174°
2026-04-29 20:09 -17.24638 57.03149 38990 ft 469 kts 174°
2026-04-29 20:10 -17.31218 57.03767 38998 ft 468 kts 174°
2026-04-29 20:10 -17.37769 57.04384 38995 ft 469 kts 174°
2026-04-29 20:11 -17.44351 57.05003 38989 ft 468 kts 174°
2026-04-29 20:11 -17.50892 57.05619 38987 ft 464 kts 175°
2026-04-29 20:12 -17.57377 57.06230 38989 ft 465 kts 175°
2026-04-29 20:12 -17.63913 57.06846 38987 ft 466 kts 174°
2026-04-29 20:13 -17.69358 57.07361 38989 ft 466 kts 175°
2026-04-29 20:13 -17.76963 57.08079 38988 ft 466 kts 175°
2026-04-29 20:14 -17.83464 57.08693 38988 ft 466 kts 175°
2026-04-29 20:14 -17.90001 57.09311 38986 ft 466 kts 175°
2026-04-29 20:15 -17.96567 57.09932 38869 ft 469 kts 175°
2026-04-29 20:15 -17.99848 57.10213 38132 ft 475 kts 176°
2026-04-29 20:15 -18.03165 57.10472 37374 ft 469 kts 176°
2026-04-29 20:16 -18.06430 57.10729 36631 ft 462 kts 176°
2026-04-29 20:16 -18.09665 57.10984 35891 ft 456 kts 176°
2026-04-29 20:16 -18.12805 57.11232 35172 ft 451 kts 176°
2026-04-29 20:16 -18.15943 57.11480 34453 ft 446 kts 176°
2026-04-29 20:17 -18.19050 57.11726 33740 ft 440 kts 176°
2026-04-29 20:17 -18.22127 57.11969 33031 ft 436 kts 176°
2026-04-29 20:17 -18.25169 57.12209 32359 ft 431 kts 176°
2026-04-29 20:17 -18.28184 57.12447 31719 ft 426 kts 176°
2026-04-29 20:18 -18.31114 57.12679 31098 ft 422 kts 176°
2026-04-29 20:18 -18.34074 57.12913 30461 ft 418 kts 175°
2026-04-29 20:18 -18.36991 57.13144 29831 ft 414 kts 175°
2026-04-29 20:18 -18.39880 57.13373 29205 ft 411 kts 175°
2026-04-29 20:19 -18.42767 57.13602 28566 ft 407 kts 175°
2026-04-29 20:19 -18.45593 57.13826 27971 ft 403 kts 175°
2026-04-29 20:19 -18.48419 57.14051 27466 ft 396 kts 175°
2026-04-29 20:19 -18.51156 57.14268 26954 ft 390 kts 175°
2026-04-29 20:20 -18.53891 57.14485 26442 ft 385 kts 174°
2026-04-29 20:20 -18.56567 57.14697 25929 ft 380 kts 175°
2026-04-29 20:20 -18.59227 57.14908 25416 ft 375 kts 174°
2026-04-29 20:20 -18.61847 57.15116 24907 ft 371 kts 174°
2026-04-29 20:21 -18.64417 57.15321 24402 ft 367 kts 174°
2026-04-29 20:21 -18.66993 57.15525 23891 ft 363 kts 174°
2026-04-29 20:21 -18.69503 57.15725 23394 ft 360 kts 174°
2026-04-29 20:21 -18.72046 57.15927 22891 ft 357 kts 174°
2026-04-29 20:22 -18.74535 57.16125 22398 ft 354 kts 174°
2026-04-29 20:22 -18.77004 57.16322 21926 ft 351 kts 174°
2026-04-29 20:22 -18.79453 57.16517 21458 ft 348 kts 174°
2026-04-29 20:22 -18.81869 57.16710 20993 ft 346 kts 174°
2026-04-29 20:23 -18.84309 57.16904 20521 ft 343 kts 174°
2026-04-29 20:23 -18.86690 57.17094 20057 ft 341 kts 173°
2026-04-29 20:23 -18.89095 57.17285 19583 ft 339 kts 173°
2026-04-29 20:23 -18.91452 57.17473 19114 ft 336 kts 173°
2026-04-29 20:24 -18.93798 57.17660 18644 ft 334 kts 173°
2026-04-29 20:24 -18.96154 57.17848 18166 ft 332 kts 173°
2026-04-29 20:24 -18.98469 57.18033 17695 ft 329 kts 173°
2026-04-29 20:24 -19.00767 57.18217 17224 ft 327 kts 173°
2026-04-29 20:25 -19.03046 57.18399 16755 ft 326 kts 173°
2026-04-29 20:25 -19.05347 57.18583 16280 ft 324 kts 174°
2026-04-29 20:25 -19.07601 57.18763 15812 ft 323 kts 174°
2026-04-29 20:25 -19.09879 57.18945 15337 ft 322 kts 174°
2026-04-29 20:26 -19.12139 57.19126 14863 ft 321 kts 174°
2026-04-29 20:26 -19.14383 57.19306 14390 ft 320 kts 174°
2026-04-29 20:26 -19.16622 57.19485 13917 ft 319 kts 174°
2026-04-29 20:26 -19.18859 57.19663 13443 ft 319 kts 174°
2026-04-29 20:27 -19.21091 57.19842 13013 ft 316 kts 174°
2026-04-29 20:27 -19.22554 57.19958 12984 ft 305 kts 174°
2026-04-29 20:27 -19.25360 57.20182 13006 ft 296 kts 174°
2026-04-29 20:27 -19.27429 57.20348 13005 ft 295 kts 174°
2026-04-29 20:28 -19.29496 57.20514 13011 ft 296 kts 174°
2026-04-29 20:28 -19.31602 57.20683 13006 ft 296 kts 174°
2026-04-29 20:28 -19.33684 57.20850 13009 ft 297 kts 174°
2026-04-29 20:28 -19.35769 57.21017 13008 ft 298 kts 174°
2026-04-29 20:29 -19.37854 57.21184 13008 ft 297 kts 174°
2026-04-29 20:29 -19.39973 57.21354 13008 ft 297 kts 174°
2026-04-29 20:29 -19.42060 57.21522 13008 ft 297 kts 175°
2026-04-29 20:29 -19.44148 57.21689 13008 ft 297 kts 175°
2026-04-29 20:30 -19.46225 57.21856 13007 ft 296 kts 174°
2026-04-29 20:30 -19.48301 57.22023 13008 ft 296 kts 174°
2026-04-29 20:30 -19.50380 57.22189 13008 ft 295 kts 174°
2026-04-29 20:30 -19.52471 57.22358 13007 ft 295 kts 174°
2026-04-29 20:31 -19.54543 57.22524 13008 ft 296 kts 174°
2026-04-29 20:31 -19.56618 57.22690 13007 ft 296 kts 174°
2026-04-29 20:31 -19.58731 57.22861 13009 ft 297 kts 174°
2026-04-29 20:31 -19.60818 57.23029 13007 ft 297 kts 174°
2026-04-29 20:32 -19.62888 57.23195 13008 ft 297 kts 174°
2026-04-29 20:32 -19.64970 57.23363 13008 ft 296 kts 175°
2026-04-29 20:32 -19.67069 57.23532 13008 ft 296 kts 174°
2026-04-29 20:32 -19.68471 57.23645 13007 ft 297 kts 174°
2026-04-29 20:33 -19.71230 57.23866 13008 ft 297 kts 174°
2026-04-29 20:33 -19.73339 57.24036 13007 ft 297 kts 175°
2026-04-29 20:33 -19.75414 57.24203 13007 ft 296 kts 174°
2026-04-29 20:33 -19.77497 57.24371 13008 ft 296 kts 175°
2026-04-29 20:34 -19.79581 57.24538 13006 ft 296 kts 174°
2026-04-29 20:34 -19.81644 57.24705 13004 ft 295 kts 174°
2026-04-29 20:34 -19.83738 57.24874 13003 ft 295 kts 175°
2026-04-29 20:34 -19.85810 57.25041 13000 ft 295 kts 174°
2026-04-29 20:35 -19.87883 57.25209 13003 ft 295 kts 174°
2026-04-29 20:35 -19.89980 57.25379 13005 ft 296 kts 175°
2026-04-29 20:35 -19.92055 57.25546 13006 ft 296 kts 175°
2026-04-29 20:35 -19.94130 57.25713 13005 ft 296 kts 175°
2026-04-29 20:36 -19.96203 57.25880 13006 ft 296 kts 175°
2026-04-29 20:36 -19.98306 57.26050 13006 ft 296 kts 175°
2026-04-29 20:36 -20.00384 57.26218 13008 ft 296 kts 174°
2026-04-29 20:36 -20.02460 57.26386 13007 ft 296 kts 175°
2026-04-29 20:37 -20.04550 57.26555 13007 ft 295 kts 175°
2026-04-29 20:37 -20.06625 57.26723 13005 ft 295 kts 174°
2026-04-29 20:37 -20.08698 57.26891 13001 ft 295 kts 175°
2026-04-29 20:37 -20.10758 57.27057 13002 ft 294 kts 174°
2026-04-29 20:38 -20.12854 57.27227 13007 ft 295 kts 175°
2026-04-29 20:38 -20.14918 57.27394 13004 ft 296 kts 175°
2026-04-29 20:38 -20.16996 57.27563 13005 ft 297 kts 175°
2026-04-29 20:38 -20.19105 57.27734 13006 ft 297 kts 175°
2026-04-29 20:39 -20.21127 57.28185 13001 ft 295 kts 159°
2026-04-29 20:39 -20.23056 57.28983 13020 ft 296 kts 159°
2026-04-29 20:39 -20.24995 57.29755 13005 ft 295 kts 159°
2026-04-29 20:39 -20.26938 57.30512 13013 ft 296 kts 159°
2026-04-29 20:40 -20.28880 57.31263 13007 ft 295 kts 159°
2026-04-29 20:40 -20.30823 57.32015 13008 ft 295 kts 159°
2026-04-29 20:40 -20.32785 57.32774 12899 ft 296 kts 159°
2026-04-29 20:40 -20.34732 57.33536 12602 ft 295 kts 157°
2026-04-29 20:41 -20.36412 57.34739 12300 ft 290 kts 132°
2026-04-29 20:41 -20.37469 57.36549 12038 ft 289 kts 114°
2026-04-29 20:41 -20.38304 57.38496 11760 ft 288 kts 115°
2026-04-29 20:41 -20.39200 57.40429 11472 ft 286 kts 116°
2026-04-29 20:42 -20.40098 57.42322 11187 ft 286 kts 116°
2026-04-29 20:42 -20.41003 57.44219 10900 ft 286 kts 116°
2026-04-29 20:42 -20.41903 57.46105 10590 ft 284 kts 116°
2026-04-29 20:42 -20.42801 57.47986 10230 ft 283 kts 116°
2026-04-29 20:43 -20.43696 57.49863 9873 ft 282 kts 116°
2026-04-29 20:43 -20.44584 57.51723 9517 ft 281 kts 116°
2026-04-29 20:43 -20.45478 57.53598 9153 ft 280 kts 116°
2026-04-29 20:43 -20.46360 57.55450 8795 ft 279 kts 116°
2026-04-29 20:44 -20.47230 57.57274 8442 ft 278 kts 116°
2026-04-29 20:44 -20.48113 57.59130 8127 ft 275 kts 116°
2026-04-29 20:44 -20.48974 57.60936 7837 ft 271 kts 116°
2026-04-29 20:44 -20.49822 57.62719 7545 ft 268 kts 116°
2026-04-29 20:45 -20.50665 57.64490 7253 ft 266 kts 116°
2026-04-29 20:45 -20.51495 57.66236 6959 ft 263 kts 115°
2026-04-29 20:45 -20.52330 57.67991 6666 ft 261 kts 115°
2026-04-29 20:45 -20.53147 57.69708 6377 ft 259 kts 115°
2026-04-29 20:46 -20.53958 57.71416 6087 ft 257 kts 116°
2026-04-29 20:46 -20.54763 57.73112 5797 ft 255 kts 116°
2026-04-29 20:46 -20.55572 57.74815 5504 ft 254 kts 115°
2026-04-29 20:46 -20.56367 57.76487 5217 ft 253 kts 115°
2026-04-29 20:47 -20.57160 57.78159 4927 ft 251 kts 115°
2026-04-29 20:47 -20.57951 57.79841 4633 ft 250 kts 113°
2026-04-29 20:47 -20.58278 57.81621 4328 ft 245 kts 84°
2026-04-29 20:47 -20.57740 57.83284 4049 ft 236 kts 55°
2026-04-29 20:48 -20.56530 57.84401 3757 ft 226 kts 28°
2026-04-29 20:48 -20.55156 57.85138 3475 ft 219 kts 27°
2026-04-29 20:48 -20.53817 57.85854 3181 ft 213 kts 27°
2026-04-29 20:48 -20.52403 57.86198 2932 ft 206 kts 351°
2026-04-29 20:49 -20.51234 57.85461 2995 ft 198 kts 310°
2026-04-29 20:49 -20.50542 57.84185 3008 ft 201 kts 298°
2026-04-29 20:49 -20.49929 57.82851 2721 ft 196 kts 298°
2026-04-29 20:49 -20.49350 57.81601 2458 ft 179 kts 299°
2026-04-29 20:50 -20.48820 57.80471 2230 ft 162 kts 299°
2026-04-29 20:50 -20.48340 57.79440 2029 ft 152 kts 299°
2026-04-29 20:50 -20.47885 57.78462 1817 ft 143 kts 300°
2026-04-29 20:50 -20.47436 57.77532 1646 ft 139 kts 300°
2026-04-29 20:51 -20.46996 57.76619 1474 ft 138 kts 300°
2026-04-29 20:51 -20.46553 57.75700 1297 ft 138 kts 300°
2026-04-29 20:51 -20.46118 57.74796 1120 ft 137 kts 299°
2026-04-29 20:51 -20.45683 57.73893 941 ft 136 kts 299°
2026-04-29 20:52 -20.45251 57.72995 760 ft 136 kts 298°
2026-04-29 20:52 -20.44821 57.72101 578 ft 135 kts 298°
2026-04-29 20:52 -20.44394 57.71208 402 ft 134 kts 297°
2026-04-29 20:52 -20.43973 57.70319 277 ft 134 kts 297°
2026-04-29 20:53 -20.43543 57.69436 144 ft 132 kts 297°
2026-04-29 20:53 -20.43163 57.68647 163 ft 98 kts 296°
2026-04-29 20:53 -20.42922 57.68144 180 ft 54 kts 295°
2026-04-29 20:53 -20.42785 57.67866 189 ft 39 kts 296°
2026-04-29 20:54 -20.42630 57.67515 198 ft 17 kts 259°
2026-04-29 20:54 -20.42720 57.67487 199 ft 14 kts 157°
2026-04-29 20:54 -20.42807 57.67559 199 ft 16 kts 139°
2026-04-29 20:55 -20.42873 57.67607 200 ft 8 kts 156°
2026-04-29 20:55 -20.42933 57.67636 200 ft 10 kts 154°
2026-04-29 20:55 -20.42986 57.67696 200 ft 13 kts 121°
2026-04-29 20:55 -20.43037 57.67795 196 ft 17 kts 115°
2026-04-29 20:56 -20.43096 57.67926 191 ft 19 kts 117°
2026-04-29 20:56 -20.43179 57.68017 187 ft 13 kts 160°
2026-04-29 20:56 -20.43246 57.67978 189 ft 6 kts 234°
2026-04-29 20:56 -20.43259 57.67955 190 ft 0 kts 238°